User: anonymous   Login
Location: Caltech
(34.1382°N, 118.1253°W)
Time: 01:25:14
(UTC-07:00)
Language:

PAYLOAD A - Orbit

View from above orbital plane
View from above orbital plane
View from above satellite
View from above satellite

Ground track
Ground track

The orbit data is extracted from the following two-line orbital elements,

1 27840U 03031A   16237.92794763 -.00000013 +00000-0 +95925-5 0  9994
2 27840 098.1975 242.3813 0097086 292.5210 066.5724 14.38861748690618
Epoch (UTC): 24 August 2016 22:16:14
Eccentricity: 0.0097086
inclination: 98.1975°
perigee height: 693 km
apogee height: 831 km
right ascension of ascending node: 242.3813°
argument of perigee: 292.5210°
revolutions per day: 14.38861748
mean anomaly at epoch: 66.5724°
orbit number at epoch: 69061

The dashed part of the orbit path shows where the satellite is in the earth's shadow,  

DLR